Location: A�t Lahcen
(32.8243°N, 5.4246°W)
Time: 00:41:07
(UTC+00:00)

Envisat - Pass Details

Date: 27 January 2021
Orbit: 764 x 766 km, 98.1° (Epoch: 26 February)

Event Time Altitude Azimuth Distance (km) Brightness Sun altitude
Rises 06:42:32 0° 1° (N) 3,235 6.1 -8.2°
Reaches altitude 10° 06:45:01 10° 352° (N) 2,305 5.2 -7.7°
Maximum altitude 06:49:34 35° 289° (WNW) 1,227 3.6 -6.8°
Drops below altitude 10° 06:54:07 10° 224° (SW) 2,292 5.2 -5.9°
Sets 06:56:34 0° 216° (SW) 3,214 6.0 -5.4°
